CWLY

Lytton  Airport

Lytton, Canada
Issued Wind Visibility Ceiling Temperature Dew Point Humidity Barometer
Nov-24
16:01 UTC
200°
21 KTS
Gust 29 KTS
9 miles Overcast
9,200' AGL
C
45° F
C
37° F
76% 29.84" Hg
1011.1 hPa
VFR
Nov-24
15:39 UTC
200°
17 KTS
Gust 30 KTS
9 miles Overcast
9,000' AGL
C
46° F
C
37° F
71% 29.84" Hg
1011 hPa
VFR
Nov-24
15:00 UTC
200°
19 KTS
Gust 31 KTS
9 miles Overcast
9,500' AGL
C
46° F
C
37° F
71% 29.82" Hg
1010.5 hPa
VFR
Nov-24
14:00 UTC
200°
17 KTS
Gust 28 KTS
9 miles Overcast
9,500' AGL
C
46° F
C
39° F
76% 29.81" Hg
1010.2 hPa
VFR
Nov-24
13:00 UTC
180°
16 KTS
Gust 25 KTS
9 miles Overcast
10,000' AGL
C
46° F
C
37° F
71% 29.78" Hg
1009 hPa
VFR
Nov-24
12:00 UTC
190°
17 KTS
Gust 28 KTS
9 miles Overcast
9,500' AGL
C
46° F
C
39° F
76% 29.76" Hg
1008.4 hPa
VFR
Nov-24
11:41 UTC
210°
14 KTS
Gust 24 KTS
9 miles Overcast
9,500' AGL
C
46° F
C
39° F
76% 29.75" Hg
1007.9 hPa
VFR
Nov-24
11:11 UTC
180°
14 KTS
Gust 26 KTS
9 miles Broken
7,800' AGL
C
46° F
C
39° F
76% 29.75" Hg
1007.9 hPa
VFR
Nov-24
11:00 UTC
190°
17 KTS
Gust 28 KTS
9 miles Overcast
8,900' AGL
C
46° F
C
39° F
76% 29.74" Hg
1007.8 hPa
VFR
Nov-24
10:00 UTC
200°
15 KTS
Gust 27 KTS
9 miles Broken
8,000' AGL
C
46° F
C
37° F
71% 29.72" Hg
1007 hPa
VFR
Nov-24
09:00 UTC
200°
16 KTS
Gust 30 KTS
9 miles Broken
8,000' AGL
C
46° F
C
37° F
71% 29.71" Hg
1006.6 hPa
VFR
Nov-24
08:00 UTC
190°
17 KTS
Gust 29 KTS
9 miles Overcast
7,500' AGL
C
46° F
C
39° F
76% 29.7" Hg
1006.2 hPa
VFR
Nov-24
07:20 UTC
210°
13 KTS
Gust 29 KTS
9 miles Broken
7,200' AGL
C
46° F
C
39° F
76% 29.7" Hg
1006.3 hPa
VFR
Nov-24
07:00 UTC
200°
18 KTS
Gust 31 KTS
9 miles Broken
8,000' AGL
C
46° F
C
39° F
76% 29.7" Hg
1006.3 hPa
VFR
Nov-24
06:39 UTC
200°
22 KTS
Gust 31 KTS
9 miles Broken
9,500' AGL
C
46° F
C
39° F
76% 29.69" Hg
1005.9 hPa
VFR
Nov-24
06:00 UTC
200°
16 KTS
Gust 30 KTS
9 miles   C
46° F
C
39° F
76% 29.69" Hg
1006 hPa
VFR
Nov-24
05:13 UTC
200°
17 KTS
Gust 26 KTS
9 miles Broken
7,000' AGL
C
46° F
C
39° F
76% 29.68" Hg
1005.7 hPa
VFR
Nov-24
05:00 UTC
210°
16 KTS
Gust 28 KTS
9 miles Broken
9,500' AGL
C
46° F
C
39° F
76% 29.69" Hg
1005.8 hPa
VFR
Nov-24
04:59 UTC
200°
15 KTS
Gust 28 KTS
9 miles Broken
9,500' AGL
C
46° F
C
39° F
76% 29.69" Hg
1005.8 hPa
VFR
Nov-24
04:00 UTC
210°
16 KTS
Gust 27 KTS
9 miles Broken
9,000' AGL
C
46° F
C
37° F
71% 29.68" Hg
1005.6 hPa
VFR
Nov-24
03:00 UTC
210°
14 KTS
Gust 32 KTS
9 miles   C
48° F
C
39° F
71% 29.68" Hg
1005.4 hPa
VFR
Nov-24
02:00 UTC
210°
15 KTS
Gust 23 KTS
9 miles   C
48° F
C
37° F
66% 29.67" Hg
1005.2 hPa
VFR
Nov-24
01:00 UTC
210°
14 KTS
Gust 27 KTS
9 miles   C
48° F
C
37° F
66% 29.65" Hg
1004.5 hPa
VFR
Nov-24
00:00 UTC
210°
16 KTS
Gust 35 KTS
9 miles   C
48° F
C
37° F
66% 29.63" Hg
1003.9 hPa
VFR
Nov-23
23:00 UTC
210°
16 KTS
Gust 30 KTS
9 miles   10° C
50° F
C
36° F
58% 29.61" Hg
1003 hPa
VFR
Nov-23
22:00 UTC
200°
22 KTS
Gust 35 KTS
9 miles   C
48° F
C
39° F
71% 29.61" Hg
1003.1 hPa
VFR
Nov-23
21:00 UTC
200°
20 KTS
Gust 31 KTS
9 miles   10° C
50° F
C
39° F
67% 29.61" Hg
1003 hPa
VFR
Nov-23
20:00 UTC
210°
12 KTS
Gust 26 KTS
9 miles Broken
10,000' AGL
10° C
50° F
C
37° F
62% 29.63" Hg
1003.8 hPa
VFR
Nov-23
19:00 UTC
210°
11 KTS
Gust 20 KTS
9 miles Overcast
9,000' AGL
11° C
52° F
C
41° F
67% 29.65" Hg
1004.3 hPa
VFR
Nov-23
18:00 UTC
180°
14 KTS
Gust 21 KTS
9 miles Overcast
8,000' AGL
10° C
50° F
C
45° F
82% 29.65" Hg
1004.6 hPa
VFR
Nov-23
17:00 UTC
190°
11 KTS
Gust 20 KTS
9 miles Overcast
9,500' AGL
10° C
50° F
C
45° F
82% 29.66" Hg
1004.8 hPa
VFR